Atka, AK

4:54 PM HST on February 21, 2017 (GMT -1000)
Atka

Weather History for PAAK - September, 2013

Change the Weather History Date:

Monday, September 16, 2013

  Actual Average (PADK) Record (PADK)
Temperature  
Mean Temperature 48 °F -  
Max Temperature 51 °F 53 °F 62 °F (1954)
Min Temperature 46 °F 43 °F 37 °F (1993)
Degree Days  
Heating Degree Days 16    
Moisture  
Dew Point 44 °F    
Average Humidity 81    
Maximum Humidity 93    
Minimum Humidity 71    
Precipitation  
Precipitation 0.00 in - - ()
Sea Level Pressure  
Sea Level Pressure 30.12 in    
Wind  
Wind Speed 7 mph (West)    
Max Wind Speed 12 mph    
Max Gust Speed 18 mph    
Visibility 10 miles    
Events      
Averages and records for this station are not official NWS values.
T = Trace of Precipitation, MM = Missing Value Source: NWS Daily Summary

Daily Weather History Graph

Daily Weather History Graph

Search for Another Location

Airport or City:

Trip Planner

Search our weather history database for the weather conditions in past years. The results will help you decide how hot, cold, wet, or windy it might be!

Date:

Astronomy

Sep. 16, 2013 Rise Set
Actual Time 8:13 AM HDT 8:48 PM HDT
Civil Twilight 7:39 AM HDT 9:22 PM HDT
Nautical Twilight 6:58 AM HDT 10:02 PM HDT
Astronomical Twilight 6:15 AM HDT 10:45 PM HDT
Moon 7:18 PM HDT (9/16) 4:59 AM HDT (9/16)
Length of Visible Light 13h 42m
Length of Day
12h 34m
Waxing Gibbous, 91% of the Moon is Illuminated
Sep 16
Waxing Gibbous
Sep 19
Full
Sep 26
Last Quarter
Oct 4
New
Oct 11
First Quarter

Hourly Weather History & Observations

Time (HDT) Temp. Windchill Dew Point Humidity Pressure Visibility Wind Dir Wind Speed Gust Speed Precip Events Conditions
12:16 AM 50.0 °F - 44.6 °F 82% 30.21 in 10.0 mi West 5.8 mph - N/A   Overcast
12:36 AM 48.2 °F - 44.6 °F 87% 30.20 in 10.0 mi West 4.6 mph - N/A   Overcast
12:56 AM 48.2 °F - 44.6 °F 87% 30.20 in 10.0 mi West 5.8 mph - N/A   Overcast
1:16 AM 48.2 °F - 42.8 °F 82% 30.20 in 10.0 mi West 6.9 mph - N/A   Overcast
1:36 AM 48.2 °F - 42.8 °F 82% 30.20 in 10.0 mi WSW 5.8 mph - N/A   Overcast
1:56 AM 48.2 °F - 42.8 °F 82% 30.20 in 10.0 mi SW 8.1 mph - N/A   Overcast
2:16 AM 48.2 °F - 42.8 °F 82% 30.20 in 10.0 mi SW 10.4 mph - N/A   Overcast
2:36 AM 46.4 °F 41.9 °F 42.8 °F 87% 30.20 in 10.0 mi WSW 9.2 mph - N/A   Scattered Clouds
2:56 AM 46.4 °F 41.5 °F 41.0 °F 81% 30.19 in 10.0 mi WSW 10.4 mph - N/A   Clear
3:16 AM 46.4 °F 41.9 °F 41.0 °F 81% 30.19 in 10.0 mi WSW 9.2 mph - N/A   Clear
3:36 AM 46.4 °F 41.5 °F 39.2 °F 76% 30.18 in 10.0 mi WSW 10.4 mph - N/A   Clear
3:56 AM 46.4 °F 41.9 °F 41.0 °F 81% 30.18 in 10.0 mi West 9.2 mph - N/A   Clear
4:16 AM 46.4 °F 41.5 °F 39.2 °F 76% 30.17 in 10.0 mi WSW 10.4 mph - N/A   Clear
4:36 AM 46.4 °F 41.9 °F 41.0 °F 81% 30.17 in 10.0 mi West 9.2 mph - N/A   Clear
4:56 AM 46.4 °F 44.3 °F 41.0 °F 81% 30.17 in 10.0 mi WNW 4.6 mph - N/A   Clear
5:16 AM 46.4 °F - 41.0 °F 81% 30.17 in 10.0 mi Calm Calm - N/A   Clear
5:36 AM 46.4 °F 43.5 °F 39.2 °F 76% 30.17 in 10.0 mi West 5.8 mph - N/A   Clear
5:56 AM 46.4 °F 42.9 °F 41.0 °F 81% 30.17 in 10.0 mi West 6.9 mph - N/A   Partly Cloudy
6:16 AM 46.4 °F 44.3 °F 41.0 °F 81% 30.17 in 10.0 mi West 4.6 mph - N/A   Clear
6:36 AM 46.4 °F 44.3 °F 41.0 °F 81% 30.17 in 10.0 mi WSW 4.6 mph - N/A   Clear
6:56 AM 46.4 °F 43.5 °F 41.0 °F 81% 30.16 in 10.0 mi West 5.8 mph - N/A   Clear
7:16 AM 46.4 °F 42.9 °F 41.0 °F 81% 30.15 in 10.0 mi WSW 6.9 mph - N/A   Partly Cloudy
7:36 AM 46.4 °F 42.9 °F 41.0 °F 81% 30.15 in 10.0 mi West 6.9 mph - N/A   Partly Cloudy
7:56 AM 46.4 °F 43.5 °F 42.8 °F 87% 30.15 in 10.0 mi WNW 5.8 mph - N/A   Clear
8:16 AM 46.4 °F 42.9 °F 42.8 °F 87% 30.15 in 10.0 mi WNW 6.9 mph - N/A   Clear
8:36 AM 46.4 °F 42.9 °F 42.8 °F 87% 30.15 in 10.0 mi West 6.9 mph - N/A   Clear
8:56 AM 46.4 °F 42.9 °F 42.8 °F 87% 30.15 in 10.0 mi West 6.9 mph - N/A   Clear
9:16 AM 48.2 °F - 42.8 °F 82% 30.15 in 10.0 mi West 5.8 mph - N/A   Partly Cloudy
9:36 AM 48.2 °F - 42.8 °F 82% 30.14 in 10.0 mi West 4.6 mph - N/A   Partly Cloudy
9:56 AM 50.0 °F - 44.6 °F 82% 30.15 in 10.0 mi WNW 4.6 mph - N/A   Partly Cloudy
10:16 AM 50.0 °F - 42.8 °F 76% 30.14 in 10.0 mi NW 6.9 mph - N/A   Mostly Cloudy
10:36 AM 51.8 °F - 42.8 °F 71% 30.15 in 10.0 mi NW 5.8 mph - N/A   Scattered Clouds
10:56 AM 51.8 °F - 42.8 °F 71% 30.15 in 10.0 mi NW 4.6 mph - N/A   Clear
11:16 AM 51.8 °F - 42.8 °F 71% 30.14 in 10.0 mi NW 6.9 mph - N/A   Partly Cloudy
11:36 AM 51.8 °F - 42.8 °F 71% 30.14 in 10.0 mi NW 8.1 mph - N/A   Mostly Cloudy
11:56 AM 51.8 °F - 44.6 °F 76% 30.14 in 10.0 mi NNW 10.4 mph - N/A   Mostly Cloudy
12:16 PM 51.8 °F - 42.8 °F 71% 30.14 in 10.0 mi NW 11.5 mph - N/A   Scattered Clouds
12:36 PM 51.8 °F - 42.8 °F 71% 30.13 in 10.0 mi NW 10.4 mph - N/A   Mostly Cloudy
12:56 PM 51.8 °F - 44.6 °F 76% 30.13 in 10.0 mi NW 9.2 mph - N/A   Scattered Clouds
1:16 PM 51.8 °F - 44.6 °F 76% 30.12 in 10.0 mi NNW 9.2 mph - N/A   Partly Cloudy
1:36 PM 51.8 °F - 44.6 °F 76% 30.12 in 10.0 mi NW 10.4 mph - N/A   Mostly Cloudy
1:56 PM 51.8 °F - 44.6 °F 76% 30.12 in 10.0 mi NW 10.4 mph - N/A   Overcast
2:16 PM 51.8 °F - 44.6 °F 76% 30.11 in 10.0 mi West 6.9 mph - N/A   Overcast
2:36 PM 51.8 °F - 44.6 °F 76% 30.10 in 10.0 mi WNW 9.2 mph - N/A   Overcast
2:56 PM 51.8 °F - 44.6 °F 76% 30.10 in 10.0 mi West 4.6 mph - N/A   Overcast
3:16 PM 51.8 °F - 44.6 °F 76% 30.10 in 10.0 mi NW 3.5 mph - N/A   Overcast
3:36 PM 51.8 °F - 44.6 °F 76% 30.09 in 10.0 mi NNW 5.8 mph - N/A   Overcast
3:56 PM 51.8 °F - 44.6 °F 76% 30.08 in 10.0 mi NNW 4.6 mph - N/A   Overcast
4:16 PM 51.8 °F - 44.6 °F 76% 30.08 in 10.0 mi SW 10.4 mph - N/A   Overcast
4:36 PM 51.8 °F - 44.6 °F 76% 30.07 in 10.0 mi SW 9.2 mph - N/A   Overcast
4:56 PM 51.8 °F - 46.4 °F 82% 30.06 in 10.0 mi NW 3.5 mph - N/A   Overcast
5:16 PM 51.8 °F - 44.6 °F 76% 30.06 in 10.0 mi West 4.6 mph - N/A   Overcast
5:36 PM 51.8 °F - 44.6 °F 76% 30.05 in 10.0 mi WSW 4.6 mph - N/A   Overcast
5:56 PM - - - N/A% - - North - - N/A   Unknown
6:16 PM 51.8 °F - 44.6 °F 76% 30.05 in 10.0 mi NW 5.8 mph - N/A   Mostly Cloudy
6:36 PM 51.8 °F - 44.6 °F 76% 30.04 in 10.0 mi NW 5.8 mph - N/A   Overcast
6:56 PM 50.0 °F - 44.6 °F 82% 30.04 in 10.0 mi Calm Calm - N/A   Overcast
7:16 PM 50.0 °F - 46.4 °F 87% 30.04 in 10.0 mi NNW 4.6 mph - N/A   Overcast
7:36 PM 50.0 °F - 44.6 °F 82% 30.04 in 10.0 mi WNW 5.8 mph - N/A   Overcast
7:56 PM 50.0 °F - 44.6 °F 82% 30.04 in 10.0 mi WNW 5.8 mph - N/A   Overcast
8:16 PM 48.2 °F - 44.6 °F 87% 30.04 in 9.0 mi WNW 5.8 mph - N/A   Overcast
8:36 PM 48.2 °F - 46.4 °F 93% 30.04 in 6.0 mi WNW 4.6 mph - N/A   Overcast
8:56 PM 48.2 °F - 46.4 °F 93% 30.03 in 8.0 mi WNW 3.5 mph - N/A   Overcast
9:16 PM 48.2 °F - 46.4 °F 93% 30.03 in 7.0 mi Calm Calm - N/A   Overcast
9:36 PM 48.2 °F - 44.6 °F 87% 30.03 in 10.0 mi SW 3.5 mph - N/A   Overcast
9:56 PM 48.2 °F - 46.4 °F 93% 30.02 in 8.0 mi Calm Calm - N/A   Overcast
10:16 PM 48.2 °F - 46.4 °F 93% 30.02 in 8.0 mi Calm Calm - N/A   Overcast
10:36 PM 48.2 °F - 46.4 °F 93% 30.02 in 10.0 mi ESE 4.6 mph - N/A   Overcast
10:56 PM 48.2 °F - 44.6 °F 87% 30.01 in 10.0 mi SSE 6.9 mph - N/A   Overcast
11:16 PM 48.2 °F - 44.6 °F 87% 30.00 in 10.0 mi SSE 8.1 mph 18.4 mph N/A   Overcast
11:36 PM 48.2 °F - 44.6 °F 87% 30.01 in 10.0 mi SSW 11.5 mph 16.1 mph N/A   Overcast
11:56 PM 48.2 °F - 44.6 °F 87% 30.01 in 10.0 mi SW 9.2 mph - N/A   Mostly Cloudy